[[{"header":{"parameterUnit":"m.s-1","parameterCategory":1,"la1":30.2991,"la2":30.254,"lo1":-89.0895,"lo2":-89.0444,"dy":0.0017,"dx":0.0017,"nx":28,"ny":28,"refTime":"2023-09-13T03:00:00:Z","depth":0,"parameterNumber":2,"parameterNumberName":"U-component_of_WINDS"},"data":[0,0,0,0,0,0,0,0,0,0,0,0,0,0,0,0,0,0,0,0,0,0,0,0,0,0,0,0,0,0,0,0,0,0,0,0,0,0,0,0,0,0,0,0,0,0,0,0,0,0,0,0,0,0,0,0,0,0,2.4865,2.4866,0,2.4952,2.4953,2.4954,2.4905,2.4903,2.4901,2.4898,2.4988,2.4992,2.4997,0,0,0,0,0,0,0,0,0,0,0,0,0,2.4655,2.4659,2.4865,2.4866,2.4867,2.4952,2.4953,2.4954,2.4906,2.4903,2.49,2.4897,2.4986,2.4991,2.4997,0,0,0,0,0,0,0,0,0,0,0,0,0,2.4745,2.4661,2.4865,2.4853,2.4853,2.4952,2.4953,2.4955,2.4907,2.4903,2.4899,2.4896,2.4984,2.4991,2.4998,2.5113,0,0,2.5019,2.5022,0,0,0,0,0,0,0,0,2.474,2.4753,2.4854,2.4854,2.4854,2.4914,2.4912,2.5008,2.4907,2.4886,2.4898,2.4894,2.4966,2.4974,2.4998,2.5117,2.5121,2.502,2.5024,2.5027,2.5029,0,0,0,0,0,0,0,2.4734,2.4748,2.4899,2.4855,2.4856,2.4843,2.4852,2.493,2.4945,2.4888,2.4884,2.4895,2.4965,2.4992,2.5,2.5122,2.5019,2.5025,2.503,2.5032,2.5338,2.5342,0,0,0,0,0,0,2.4728,2.4744,2.4897,2.4902,2.4787,2.485,2.486,2.4899,2.4944,2.4948,2.4898,2.4893,2.4982,2.4992,2.5003,2.514,2.5027,2.5033,2.5037,2.5334,2.5339,2.5343,0,0,0,0,0,0,2.4724,2.4742,2.4893,2.4822,2.484,2.4857,2.4901,2.4902,2.4929,2.4952,2.4955,2.4923,2.4979,2.4993,2.5086,2.5143,2.5036,2.5043,2.5329,2.5336,2.5341,2.5416,0,0,0,0,0,0,2.4718,2.4741,2.4785,2.4823,2.4844,2.4975,2.4905,2.4907,2.4941,2.4934,2.4976,2.4979,2.4978,2.5076,2.5093,2.515,2.5048,2.5324,2.5332,2.5339,2.5408,2.5424,2.5437,0,0,0,0,0,2.4711,2.4803,2.4788,2.4807,2.49,2.4978,2.499,2.4986,2.4946,2.499,2.5005,2.4978,2.5134,2.5085,2.5104,2.5165,2.5321,2.533,2.5339,2.5402,2.5421,2.5436,0,0,0,0,0,0,2.4772,2.4808,2.4791,2.4899,2.4936,2.497,2.5026,2.5006,2.5056,2.5047,2.5041,2.505,2.5146,2.5165,2.511,2.5278,2.5221,2.5234,2.5263,2.528,2.5294,2.5288,2.5054,0,0,0,0,0,2.4798,2.4858,2.4887,2.4979,2.4998,2.5009,2.5043,2.5037,2.5074,2.509,2.5112,2.5149,2.5206,2.5244,2.5298,2.5411,2.5419,2.5461,2.5476,2.5487,2.5499,2.5558,2.5578,2.5373,2.5372,2.5372,0,0,2.4852,2.4879,2.4918,2.4992,2.5019,2.5082,2.5022,2.5091,2.5137,2.51,2.5189,2.5206,2.5247,2.535,2.5396,2.5368,2.5557,2.5498,2.5507,2.5513,2.557,2.5589,2.5606,2.5379,2.5377,2.5377,0,0,2.4983,2.501,2.5089,2.5118,2.5161,2.5167,2.5186,2.5223,2.5233,2.5321,2.5294,2.5349,2.5448,2.5478,2.5507,2.5648,2.5625,2.5666,2.574,2.5798,2.5814,2.5829,2.5879,2.5897,2.5677,2.5677,2.5677,0,2.5045,2.5138,2.5132,2.5203,2.5236,2.5205,2.5284,2.5313,2.5371,2.5394,2.5362,2.5485,2.5511,2.5619,2.5654,2.5678,2.5699,2.5661,2.5812,2.5827,2.584,2.5888,2.5906,2.5682,2.5681,2.5681,2.568,0,2.5212,2.5277,2.5336,2.5393,2.5432,2.5508,2.5512,2.5553,2.5543,2.5552,2.5642,2.5672,2.5731,2.5756,2.5748,2.5864,2.5845,2.5813,2.5755,2.5864,2.5909,2.5927,2.5689,2.5687,2.5685,2.5684,0,0,2.5385,2.5437,2.5458,2.5483,2.5528,2.5578,2.5651,2.5708,2.5743,2.5784,2.5845,2.5929,2.5899,2.5931,2.5925,2.5977,2.6086,2.5938,2.5939,2.5964,2.6215,2.6239,2.626,2.607,2.6074,2.6077,2.6211,0,2.5519,2.5647,2.5643,2.5762,2.5822,2.5792,2.5856,2.589,2.59,2.5952,2.5963,2.6023,2.5979,2.5998,2.6048,2.6062,2.6136,2.6052,2.6127,2.613,2.6118,2.6284,2.631,2.6436,2.6229,2.6232,2.6234,0,2.5692,2.5738,2.5864,2.5898,2.5923,2.598,2.6032,2.6082,2.6119,2.6123,2.6159,2.6145,2.6218,2.6158,2.6259,2.6202,2.6232,2.6244,2.6249,2.6256,2.6189,2.6295,2.6476,2.6495,2.6261,2.6259,2.6257,0,2.5805,2.5899,2.5986,2.6008,2.6051,2.6091,2.6111,2.6145,2.6179,2.6224,2.6246,2.63,2.6329,2.637,2.637,2.6327,2.6472,2.6413,2.6478,2.6478,2.651,2.6508,2.6698,2.6529,2.6529,2.6529,2.6528,0,2.5955,2.6033,2.6037,2.6091,2.6177,2.6171,2.6256,2.6271,2.6301,2.6356,2.6334,2.6386,2.6383,2.6436,2.6437,2.652,2.6533,2.6538,2.6537,2.6541,2.654,2.656,2.6552,2.6534,2.6533,2.6532,2.6531,0,2.6097,2.6103,2.6196,2.6228,2.6237,2.6299,2.6327,2.6377,2.6385,2.6455,2.6472,2.6484,2.6545,2.6549,2.662,2.662,2.6721,2.6711,2.6709,2.6707,2.6772,2.6766,2.6982,2.701,2.6822,2.6824,2.6826,0,2.6193,2.6252,2.629,2.6325,2.6347,2.6405,2.644,2.6435,2.6473,2.6519,2.6564,2.6622,2.6669,2.6768,2.6783,2.6837,2.6828,2.69,2.6836,2.6837,2.6829,2.6825,2.6831,2.6912,2.6914,2.6916,2.6917,0,2.6362,2.6361,2.6413,2.6465,2.6507,2.6548,2.6586,2.6616,2.6616,2.6659,2.6721,2.6758,2.6829,2.6888,2.694,2.6959,2.6939,2.6937,2.6955,2.6959,2.6956,2.6958,2.6743,2.6933,2.6931,2.693,2.6929,2.6929,2.6484,2.6534,2.6569,2.6626,2.6654,2.669,2.6739,2.6752,2.6804,2.6862,2.6856,2.6925,2.6959,2.7027,2.705,2.7104,2.7079,2.7105,2.7112,2.7118,2.7125,2.6947,2.7113,2.7113,2.7112,2.7112,2.7111,0,2.6652,2.6672,2.6725,2.6778,2.6824,2.6799,2.684,2.6879,2.694,2.6973,2.702,2.709,2.7147,2.7166,2.722,2.7259,2.7251,2.7274,2.7271,2.7276,2.7144,2.7123,2.7279,2.7279,2.7279,2.7279,2.7279,2.7279,2.6744,2.6829,2.6832,2.693,2.6949,2.7017,2.7042,2.7074,2.7101,2.7181,2.7227,2.7239,2.7267,2.7323,2.7373,2.7377,2.7398,2.7425,2.7426,2.7302,2.7285,2.7269,2.7249,2.743,2.743,2.7553,2.7554,2.7555]},{"header":{"parameterUnit":"m.s-1","parameterCategory":1,"la1":30.2991,"la2":30.254,"lo1":-89.0895,"lo2":-89.0444,"dy":0.0017,"dx":0.0017,"nx":28,"ny":28,"refTime":"2023-09-13T03:00:00:Z","depth":0,"parameterNumber":3,"parameterNumberName":"V-component_of_WINDS"},"data":[0,0,0,0,0,0,0,0,0,0,0,0,0,0,0,0,0,0,0,0,0,0,0,0,0,0,0,0,0,0,0,0,0,0,0,0,0,0,0,0,0,0,0,0,0,0,0,0,0,0,0,0,0,0,0,0,0,0,2.0378,2.0378,0,2.0401,2.0401,2.0402,2.0324,2.0322,2.0319,2.0317,2.0339,2.0342,2.0344,0,0,0,0,0,0,0,0,0,0,0,0,0,2.0263,2.0266,2.0378,2.0378,2.0379,2.0401,2.0401,2.0402,2.0324,2.0322,2.0319,2.0316,2.0338,2.0341,2.0345,0,0,0,0,0,0,0,0,0,0,0,0,0,2.0303,2.0267,2.0378,2.0343,2.034,2.0401,2.0401,2.0402,2.0325,2.0321,2.0318,2.0315,2.0337,2.0341,2.0345,2.0441,0,0,2.0358,2.0359,0,0,0,0,0,0,0,0,2.03,2.0307,2.0348,2.0345,2.0342,2.0356,2.0369,2.0415,2.0326,2.0331,2.0317,2.0313,2.0347,2.035,2.0362,2.0442,2.0443,2.0358,2.0361,2.0362,2.0363,0,0,0,0,0,0,0,2.0298,2.0305,2.0387,2.0348,2.0345,2.0325,2.0326,2.0377,2.0358,2.033,2.0324,2.0328,2.0345,2.0359,2.0362,2.0443,2.0358,2.0362,2.0364,2.0366,2.0599,2.0603,0,0,0,0,0,0,2.03,2.0304,2.0386,2.0388,2.0312,2.033,2.0331,2.0355,2.0358,2.0355,2.0331,2.0325,2.0353,2.0358,2.0363,2.0474,2.0362,2.0366,2.0369,2.0595,2.06,2.0604,0,0,0,0,0,0,2.0298,2.0308,2.0385,2.0344,2.0352,2.0335,2.0362,2.0357,2.0371,2.0359,2.0354,2.0349,2.0351,2.0357,2.0421,2.0473,2.0368,2.0372,2.0591,2.0597,2.0602,2.0697,0,0,0,0,0,0,2.0295,2.0308,2.0345,2.0346,2.0355,2.0445,2.0366,2.036,2.0378,2.037,2.0374,2.0371,2.0348,2.0416,2.0426,2.0477,2.0375,2.0586,2.0594,2.06,2.0689,2.0705,2.0719,0,0,0,0,0,2.0291,2.0371,2.0348,2.0358,2.0401,2.0448,2.0454,2.0426,2.0383,2.0419,2.0411,2.0371,2.0466,2.0423,2.0433,2.0487,2.0583,2.0592,2.06,2.0683,2.0702,2.0719,0,0,0,0,0,0,2.0378,2.0371,2.0344,2.0427,2.0439,2.0435,2.0481,2.0448,2.0472,2.0463,2.0428,2.0429,2.05,2.0499,2.0452,2.0578,2.0517,2.0528,2.0576,2.0595,2.0609,2.0608,2.0378,0,0,0,0,0,2.0406,2.0446,2.0437,2.0511,2.0518,2.0499,2.0518,2.0496,2.0506,2.0511,2.0507,2.0518,2.055,2.0572,2.0601,2.0688,2.0687,2.073,2.0745,2.0757,2.0767,2.0812,2.0831,2.0631,2.0631,2.0631,0,0,2.0466,2.0467,2.0494,2.0528,2.0535,2.0575,2.0503,2.055,2.0579,2.0518,2.0578,2.0576,2.0586,2.0662,2.0695,2.0664,2.0822,2.0768,2.0778,2.0781,2.0823,2.0841,2.0858,2.0637,2.0636,2.0635,0,0,2.0595,2.0601,2.0662,2.067,2.068,2.0666,2.0681,2.0682,2.0678,2.0738,2.0692,2.0725,2.0782,2.079,2.0802,2.0932,2.0896,2.0942,2.102,2.1064,2.108,2.1094,2.1139,2.1156,2.0952,2.0952,2.0952,0,2.0669,2.0729,2.0698,2.0747,2.0762,2.0708,2.0769,2.0777,2.0797,2.0808,2.0773,2.0841,2.0844,2.0921,2.0952,2.0964,2.0978,2.0942,2.108,2.1094,2.1106,2.1149,2.1167,2.0958,2.0957,2.0957,2.0956,0,2.0817,2.086,2.0907,2.0928,2.0948,2.1003,2.0979,2.1003,2.0978,2.0968,2.1029,2.103,2.1057,2.1073,2.105,2.1146,2.1126,2.1086,2.1024,2.1131,2.1171,2.1187,2.0966,2.0964,2.0962,2.0961,0,0,2.1005,2.1004,2.1023,2.103,2.1036,2.1068,2.1119,2.1146,2.1167,2.1182,2.1223,2.1271,2.1233,2.1246,2.1223,2.1262,2.1363,2.1216,2.1216,2.1243,2.1468,2.1499,2.1519,2.1339,2.1342,2.1344,2.1467,0,2.1132,2.122,2.1192,2.1281,2.1319,2.1266,2.131,2.1318,2.1309,2.1339,2.1328,2.1362,2.131,2.1317,2.1353,2.1344,2.1408,2.1334,2.1376,2.1378,2.1376,2.154,2.1572,2.1689,2.1483,2.1485,2.1487,0,2.1293,2.1313,2.1406,2.1404,2.1418,2.1459,2.148,2.1509,2.1516,2.1507,2.1521,2.1488,2.1537,2.1474,2.154,2.149,2.1505,2.1503,2.1506,2.151,2.144,2.1547,2.1725,2.1743,2.1512,2.151,2.1508,0,2.1419,2.1469,2.1531,2.1539,2.1538,2.1568,2.1569,2.1572,2.1589,2.1607,2.1618,2.1642,2.1655,2.1673,2.1648,2.1604,2.1717,2.1652,2.171,2.1711,2.1737,2.1736,2.192,2.1747,2.1746,2.1746,2.1746,0,2.1564,2.1623,2.1588,2.1626,2.1689,2.1655,2.1719,2.1713,2.1717,2.1752,2.1707,2.1741,2.1705,2.1735,2.1715,2.1772,2.1778,2.1771,2.1765,2.1776,2.1777,2.1786,2.1777,2.1751,2.175,2.1749,2.1748,0,2.1717,2.1696,2.1759,2.1753,2.1752,2.1799,2.1793,2.1827,2.1813,2.1858,2.1867,2.1846,2.1879,2.1855,2.1887,2.1874,2.1949,2.1932,2.1947,2.1942,2.2002,2.1996,2.2199,2.2223,2.2034,2.2036,2.2037,0,2.1812,2.1856,2.1853,2.1873,2.1877,2.191,2.1927,2.1895,2.1914,2.1924,2.1957,2.1986,2.2007,2.2062,2.2049,2.2073,2.2056,2.2125,2.206,2.2068,2.2057,2.2055,2.2059,2.2139,2.2141,2.2143,2.2144,0,2.1982,2.1968,2.1995,2.2017,2.2038,2.2054,2.2067,2.2086,2.2052,2.2076,2.2109,2.2125,2.2158,2.2187,2.2206,2.2206,2.217,2.2165,2.2179,2.2191,2.2198,2.2195,2.1983,2.2161,2.2159,2.2158,2.2157,2.2156,2.2108,2.2144,2.2147,2.2177,2.2183,2.2195,2.2226,2.2216,2.2243,2.2267,2.2245,2.2285,2.2288,2.231,2.2314,2.2344,2.2315,2.2337,2.2342,2.2348,2.2356,2.2193,2.2347,2.2347,2.2346,2.2346,2.2345,0,2.2275,2.2274,2.2302,2.232,2.2344,2.2306,2.2317,2.2339,2.2375,2.2381,2.2402,2.2439,2.2467,2.2455,2.2479,2.2505,2.2489,2.2512,2.251,2.2511,2.2381,2.2366,2.2525,2.2525,2.2525,2.2525,2.2525,2.2525,2.2365,2.2423,2.241,2.2469,2.2467,2.2505,2.2515,2.2525,2.253,2.2573,2.2595,2.2587,2.2586,2.2609,2.2632,2.2628,2.2639,2.2668,2.2658,2.2537,2.252,2.2503,2.2489,2.2671,2.2671,2.2785,2.2786,2.2787]}]]